Location: Bats
(43.6587°N, 0.4584°W)
Time: 15:35:22
(UTC+00:00)

NOSS 3-4 (C) - Pass Details

Date: 12 January 2026
Orbit: 773 x 1438 km, 63.4° (Epoch: 26 December)

Event Time Altitude Azimuth Distance (km) Brightness Sun altitude
Rises 17:30:15 0° 183° (S) 3,234 6.6 -7.9°
Reaches altitude 10° 17:32:53 10° 172° (S) 2,313 5.7 -8.3°
Maximum altitude 17:37:18 28° 113° (ESE) 1,441 4.1 -9.0°
Enters shadow 17:41:36 12° 58° (ENE) 2,331 4.9 -9.8°
